[[{"header":{"parameterUnit":"m.s-1","parameterCategory":1,"la1":30.2991,"la2":30.254,"lo1":-89.0895,"lo2":-89.0444,"dy":0.0017,"dx":0.0017,"nx":28,"ny":28,"refTime":"2023-10-20T03:00:00:Z","depth":0,"parameterNumber":2,"parameterNumberName":"U-component_of_WINDS"},"data":[0,0,0,0,0,0,0,0,0,0,0,0,0,0,0,0,0,0,0,0,0,0,0,0,0,0,0,0,0,0,0,0,0,0,0,0,0,0,0,0,0,0,0,0,0,0,0,0,0,0,0,0,0,0,0,0,0,0,-0.1333,-0.1332,0,-0.1262,-0.1262,-0.1261,-0.1219,-0.1219,-0.1219,-0.1219,-0.1146,-0.1144,-0.1142,0,0,0,0,0,0,0,0,0,0,0,0,0,-0.1432,-0.143,-0.1333,-0.1332,-0.1331,-0.1263,-0.1262,-0.1261,-0.1219,-0.1219,-0.1219,-0.1219,-0.1146,-0.1144,-0.1142,0,0,0,0,0,0,0,0,0,0,0,0,0,-0.1378,-0.143,-0.1333,-0.1302,-0.1299,-0.1263,-0.1262,-0.126,-0.1219,-0.1219,-0.1219,-0.1219,-0.1147,-0.1144,-0.1142,-0.113,0,0,-0.1133,-0.1132,0,0,0,0,0,0,0,0,-0.1381,-0.1374,-0.1308,-0.1305,-0.1301,-0.1249,-0.1269,-0.1217,-0.122,-0.125,-0.1219,-0.1219,-0.118,-0.1175,-0.1162,-0.1127,-0.1124,-0.1133,-0.1131,-0.113,-0.113,0,0,0,0,0,0,0,-0.1385,-0.1377,-0.1305,-0.1307,-0.1303,-0.1292,-0.1284,-0.1259,-0.1217,-0.1247,-0.1244,-0.1236,-0.1178,-0.1165,-0.116,-0.1122,-0.1133,-0.1131,-0.1129,-0.1128,-0.1074,-0.1074,0,0,0,0,0,0,-0.1393,-0.138,-0.1307,-0.1303,-0.1341,-0.1291,-0.1282,-0.1266,-0.1217,-0.121,-0.1236,-0.1234,-0.117,-0.1163,-0.1157,-0.1141,-0.113,-0.1128,-0.1126,-0.1074,-0.1074,-0.1074,0,0,0,0,0,0,-0.1396,-0.1387,-0.131,-0.1341,-0.133,-0.1289,-0.1272,-0.1265,-0.1251,-0.1209,-0.1202,-0.123,-0.1169,-0.1161,-0.1137,-0.1138,-0.1127,-0.1124,-0.1074,-0.1074,-0.1074,-0.1108,0,0,0,0,0,0,-0.1399,-0.1388,-0.1384,-0.1341,-0.1329,-0.1292,-0.1272,-0.1264,-0.1247,-0.1244,-0.1202,-0.1195,-0.1168,-0.1142,-0.1135,-0.1134,-0.1122,-0.1074,-0.1074,-0.1074,-0.1106,-0.1109,-0.1111,0,0,0,0,0,-0.1402,-0.1396,-0.1384,-0.1375,-0.1322,-0.1292,-0.1285,-0.1255,-0.1247,-0.1242,-0.1215,-0.1196,-0.1139,-0.1139,-0.1131,-0.113,-0.1073,-0.1074,-0.1074,-0.1105,-0.1108,-0.1111,0,0,0,0,0,0,-0.1439,-0.1389,-0.1376,-0.1355,-0.1328,-0.1285,-0.1277,-0.1259,-0.1234,-0.1232,-0.1196,-0.1186,-0.1166,-0.1145,-0.1147,-0.1116,-0.1104,-0.1103,-0.113,-0.1133,-0.1135,-0.1141,-0.112,0,0,0,0,0,-0.1445,-0.1424,-0.1382,-0.1368,-0.1355,-0.1319,-0.1304,-0.1284,-0.1254,-0.1243,-0.1214,-0.1186,-0.1161,-0.1146,-0.1121,-0.1103,-0.1093,-0.1098,-0.11,-0.1103,-0.1102,-0.1091,-0.1092,-0.1076,-0.1076,-0.1076,0,0,-0.1456,-0.1427,-0.1416,-0.1374,-0.1351,-0.1331,-0.1309,-0.1289,-0.1273,-0.1239,-0.1215,-0.1193,-0.1159,-0.1138,-0.1128,-0.112,-0.1105,-0.1103,-0.1105,-0.1103,-0.1091,-0.1093,-0.1095,-0.1076,-0.1076,-0.1076,0,0,-0.1466,-0.1442,-0.1428,-0.1405,-0.137,-0.1346,-0.1343,-0.1302,-0.1287,-0.1262,-0.1236,-0.1217,-0.1176,-0.1153,-0.1136,-0.1139,-0.112,-0.1131,-0.1144,-0.1134,-0.1135,-0.1136,-0.1137,-0.1138,-0.1131,-0.1131,-0.1131,0,-0.1485,-0.1454,-0.1423,-0.1403,-0.1386,-0.1355,-0.134,-0.1319,-0.1278,-0.1267,-0.126,-0.1208,-0.1182,-0.1156,-0.1157,-0.1144,-0.1139,-0.1136,-0.1138,-0.1138,-0.1139,-0.1139,-0.1139,-0.1133,-0.1132,-0.1132,-0.1132,0,-0.1478,-0.1457,-0.1449,-0.1411,-0.1392,-0.1376,-0.1342,-0.1327,-0.1308,-0.1285,-0.1261,-0.123,-0.1198,-0.119,-0.1172,-0.1161,-0.1158,-0.1145,-0.1132,-0.1143,-0.1142,-0.1142,-0.1135,-0.1134,-0.1134,-0.1134,0,0,-0.1509,-0.1454,-0.1452,-0.1434,-0.1394,-0.1376,-0.1358,-0.1328,-0.1316,-0.1289,-0.1272,-0.1239,-0.1226,-0.1207,-0.1186,-0.1177,-0.118,-0.1164,-0.1163,-0.1168,-0.1167,-0.1177,-0.1177,-0.1168,-0.1168,-0.1168,-0.1169,0,-0.1513,-0.1479,-0.1451,-0.1428,-0.1408,-0.1378,-0.1362,-0.1336,-0.1314,-0.1293,-0.1269,-0.1245,-0.1231,-0.1219,-0.1209,-0.1182,-0.118,-0.1182,-0.1152,-0.1151,-0.1161,-0.1177,-0.1187,-0.1191,-0.1169,-0.1169,-0.1169,0,-0.1514,-0.1488,-0.1463,-0.1425,-0.1415,-0.1402,-0.1372,-0.1353,-0.1322,-0.1306,-0.1285,-0.1263,-0.1242,-0.1232,-0.1203,-0.1205,-0.1191,-0.1176,-0.1176,-0.1171,-0.1161,-0.1173,-0.1191,-0.1191,-0.1169,-0.1169,-0.1169,0,-0.1539,-0.1498,-0.1478,-0.1463,-0.1418,-0.141,-0.139,-0.1359,-0.1343,-0.1317,-0.1306,-0.1278,-0.1262,-0.1241,-0.1211,-0.1207,-0.1185,-0.1172,-0.1171,-0.1172,-0.1168,-0.1168,-0.1183,-0.116,-0.116,-0.116,-0.116,0,-0.1547,-0.1532,-0.1488,-0.1476,-0.1459,-0.1427,-0.1411,-0.1389,-0.1362,-0.1344,-0.1317,-0.1301,-0.1263,-0.1243,-0.122,-0.1199,-0.1192,-0.1179,-0.1173,-0.1181,-0.1183,-0.1171,-0.117,-0.116,-0.116,-0.116,-0.116,0,-0.1572,-0.1542,-0.1517,-0.1477,-0.1467,-0.1456,-0.1421,-0.1408,-0.1385,-0.1363,-0.1356,-0.1319,-0.1294,-0.1262,-0.1227,-0.1211,-0.1193,-0.1184,-0.1203,-0.12,-0.12,-0.1201,-0.1208,-0.1207,-0.1185,-0.1185,-0.1185,0,-0.1578,-0.1567,-0.1525,-0.1512,-0.1494,-0.1472,-0.1456,-0.1424,-0.1407,-0.1372,-0.1363,-0.1335,-0.1312,-0.1272,-0.1242,-0.1215,-0.1205,-0.1209,-0.12,-0.1209,-0.1204,-0.1205,-0.1204,-0.1211,-0.1212,-0.1212,-0.1212,0,-0.1594,-0.158,-0.1557,-0.1529,-0.151,-0.1486,-0.1462,-0.1452,-0.1415,-0.1398,-0.1372,-0.1354,-0.1318,-0.1291,-0.126,-0.1239,-0.122,-0.1216,-0.1214,-0.1222,-0.1234,-0.1227,-0.1209,-0.1215,-0.1215,-0.1215,-0.1215,-0.1215,-0.1609,-0.1598,-0.1567,-0.1542,-0.1521,-0.1498,-0.1484,-0.1459,-0.1437,-0.1405,-0.1387,-0.1362,-0.1331,-0.1288,-0.1268,-0.1248,-0.124,-0.1238,-0.1237,-0.1237,-0.124,-0.1238,-0.1242,-0.1242,-0.1242,-0.1242,-0.1241,0,-0.1623,-0.1602,-0.158,-0.1546,-0.1527,-0.1511,-0.1483,-0.1468,-0.1446,-0.1419,-0.1397,-0.1367,-0.1341,-0.1309,-0.128,-0.127,-0.126,-0.1264,-0.1264,-0.1259,-0.1248,-0.1252,-0.1272,-0.1272,-0.1272,-0.1272,-0.1272,-0.1272,-0.1628,-0.1607,-0.159,-0.1558,-0.1537,-0.1512,-0.1497,-0.1476,-0.1455,-0.1423,-0.1401,-0.1381,-0.1352,-0.1321,-0.1297,-0.1288,-0.1279,-0.1285,-0.1273,-0.1263,-0.126,-0.1258,-0.1261,-0.1283,-0.1283,-0.1286,-0.1286,-0.1287]},{"header":{"parameterUnit":"m.s-1","parameterCategory":1,"la1":30.2991,"la2":30.254,"lo1":-89.0895,"lo2":-89.0444,"dy":0.0017,"dx":0.0017,"nx":28,"ny":28,"refTime":"2023-10-20T03:00:00:Z","depth":0,"parameterNumber":3,"parameterNumberName":"V-component_of_WINDS"},"data":[0,0,0,0,0,0,0,0,0,0,0,0,0,0,0,0,0,0,0,0,0,0,0,0,0,0,0,0,0,0,0,0,0,0,0,0,0,0,0,0,0,0,0,0,0,0,0,0,0,0,0,0,0,0,0,0,0,0,2.5005,2.5005,0,2.5045,2.5045,2.5046,2.5038,2.5037,2.5036,2.5035,2.5074,2.5076,2.5077,0,0,0,0,0,0,0,0,0,0,0,0,0,2.4921,2.4923,2.5005,2.5005,2.5006,2.5045,2.5045,2.5046,2.5038,2.5037,2.5036,2.5035,2.5073,2.5075,2.5078,0,0,0,0,0,0,0,0,0,0,0,0,0,2.4959,2.4924,2.5005,2.5007,2.5007,2.5044,2.5045,2.5046,2.5038,2.5037,2.5036,2.5035,2.5073,2.5075,2.5078,2.5115,0,0,2.5086,2.5087,0,0,0,0,0,0,0,0,2.4957,2.4962,2.5006,2.5007,2.5007,2.5035,2.503,2.5069,2.5038,2.5026,2.5035,2.5034,2.5062,2.5065,2.5075,2.5117,2.5119,2.5086,2.5087,2.5088,2.5089,0,0,0,0,0,0,0,2.4954,2.496,2.5021,2.5007,2.5007,2.5005,2.5009,2.5037,2.5049,2.5027,2.5027,2.5032,2.5062,2.5073,2.5076,2.5119,2.5086,2.5088,2.509,2.5091,2.5195,2.5196,0,0,0,0,0,0,2.4951,2.4958,2.5019,2.5022,2.4979,2.5008,2.5012,2.5027,2.5049,2.5052,2.5032,2.5031,2.5069,2.5073,2.5077,2.5123,2.5088,2.5091,2.5092,2.5194,2.5195,2.5197,0,0,0,0,0,0,2.495,2.4957,2.5018,2.499,2.4998,2.501,2.5027,2.5029,2.5039,2.5053,2.5055,2.5041,2.5068,2.5074,2.5106,2.5124,2.5092,2.5094,2.5192,2.5194,2.5196,2.5215,0,0,0,0,0,0,2.4947,2.4956,2.4971,2.499,2.4999,2.5046,2.5028,2.503,2.5044,2.5042,2.5062,2.5064,2.5068,2.5102,2.5109,2.5127,2.5096,2.5191,2.5193,2.5195,2.5212,2.5217,2.5221,0,0,0,0,0,2.4944,2.4974,2.4971,2.4979,2.5017,2.5047,2.5052,2.5057,2.5045,2.506,2.5069,2.5063,2.5121,2.5106,2.5113,2.5132,2.519,2.5192,2.5195,2.521,2.5216,2.522,0,0,0,0,0,0,2.4954,2.4976,2.4974,2.5011,2.5027,2.5046,2.5064,2.5062,2.5082,2.5079,2.5083,2.5088,2.5121,2.513,2.5112,2.517,2.5154,2.5158,2.5163,2.5168,2.5172,2.5169,2.5098,0,0,0,0,0,2.4961,2.4984,2.5002,2.5032,2.5041,2.5052,2.5065,2.5067,2.5084,2.5091,2.5102,2.5119,2.5141,2.5155,2.5176,2.5214,2.5218,2.5231,2.5235,2.5238,2.5242,2.5263,2.5269,2.5206,2.5206,2.5206,0,0,2.4975,2.499,2.5004,2.5035,2.5048,2.5072,2.5057,2.5083,2.51,2.5094,2.5126,2.5135,2.5154,2.519,2.5206,2.5198,2.526,2.5242,2.5244,2.5246,2.5267,2.5273,2.5278,2.5208,2.5207,2.5207,0,0,2.5012,2.5026,2.5053,2.5067,2.5088,2.5095,2.5101,2.5121,2.5127,2.5159,2.5156,2.5177,2.5214,2.5228,2.524,2.5284,2.528,2.5291,2.5312,2.5333,2.5338,2.5343,2.5359,2.5365,2.5295,2.5295,2.5295,0,2.5026,2.5062,2.5067,2.5094,2.5108,2.5105,2.5133,2.5146,2.5172,2.5181,2.5173,2.5221,2.5233,2.5272,2.5283,2.5293,2.5301,2.5288,2.5337,2.5342,2.5346,2.5361,2.5367,2.5296,2.5296,2.5296,2.5295,0,2.5079,2.5104,2.5124,2.515,2.5167,2.5193,2.5203,2.5218,2.5219,2.5227,2.5261,2.5276,2.53,2.531,2.531,2.535,2.5344,2.5336,2.532,2.5353,2.5368,2.5374,2.5298,2.5297,2.5297,2.5297,0,0,2.5122,2.5153,2.516,2.5172,2.5196,2.5215,2.5242,2.5267,2.5281,2.5299,2.5322,2.5355,2.5349,2.5362,2.5364,2.5383,2.5418,2.5373,2.5373,2.5381,2.5463,2.5468,2.5475,2.5415,2.5417,2.5417,2.5461,0,2.5162,2.521,2.5216,2.5259,2.5283,2.5281,2.5305,2.5322,2.533,2.5351,2.536,2.5384,2.5373,2.5381,2.54,2.541,2.5434,2.5407,2.5436,2.5438,2.5432,2.5483,2.5489,2.5529,2.5467,2.5468,2.5468,0,2.5214,2.5235,2.5281,2.5302,2.5312,2.5334,2.5358,2.5378,2.5397,2.5402,2.5418,2.5419,2.5447,2.543,2.5469,2.545,2.5463,2.547,2.5471,2.5474,2.5455,2.5487,2.5542,2.5548,2.5477,2.5477,2.5476,0,2.5242,2.5282,2.5314,2.5325,2.5351,2.5366,2.5377,2.5396,2.5411,2.5431,2.5441,2.5465,2.5478,2.5496,2.5503,2.549,2.5542,2.5525,2.5547,2.5546,2.5557,2.5556,2.5615,2.5565,2.5565,2.5565,2.5565,0,2.5285,2.5313,2.5327,2.5347,2.5379,2.5386,2.5417,2.5427,2.5444,2.5466,2.5466,2.5487,2.5495,2.5517,2.5522,2.5554,2.556,2.5565,2.5566,2.5565,2.5564,2.5573,2.557,2.5567,2.5566,2.5566,2.5566,0,2.5321,2.5331,2.5367,2.5389,2.5395,2.5418,2.5436,2.5456,2.5465,2.5493,2.55,2.5514,2.554,2.5549,2.558,2.5584,2.5621,2.562,2.5615,2.5615,2.5636,2.5634,2.5702,2.5712,2.5656,2.5656,2.5657,0,2.5347,2.5369,2.5394,2.5409,2.5421,2.5446,2.5462,2.547,2.5486,2.5511,2.5527,2.5554,2.5575,2.5617,2.5629,2.5654,2.5653,2.5675,2.5656,2.5655,2.5654,2.5652,2.5655,2.5679,2.5679,2.568,2.568,0,2.5394,2.5399,2.5422,2.5447,2.5466,2.5486,2.5506,2.5518,2.5529,2.5548,2.5575,2.5592,2.5625,2.5651,2.5676,2.5687,2.5686,2.5686,2.5692,2.5691,2.5688,2.5691,2.5624,2.5684,2.5684,2.5684,2.5683,2.5683,2.5426,2.5446,2.5467,2.5493,2.5509,2.5527,2.5547,2.5559,2.5583,2.5611,2.5614,2.5643,2.5663,2.5697,2.571,2.5733,2.5727,2.5736,2.5738,2.574,2.5742,2.5685,2.5737,2.5737,2.5737,2.5737,2.5737,0,2.5473,2.5487,2.5511,2.5539,2.556,2.5557,2.5579,2.5597,2.5623,2.5642,2.5664,2.5696,2.5721,2.5737,2.5763,2.5778,2.5778,2.5785,2.5784,2.5786,2.5746,2.5738,2.5784,2.5784,2.5784,2.5784,2.5784,2.5784,2.55,2.5533,2.5541,2.5582,2.5596,2.5626,2.5638,2.5656,2.5671,2.5707,2.5729,2.5739,2.5757,2.5785,2.5808,2.5812,2.5822,2.5829,2.5832,2.5794,2.5789,2.5784,2.5777,2.5831,2.5831,2.5871,2.5871,2.5872]}]]